Location: Columbia
(38.9520°N, 92.3340°W)
Time: 16:43:50
(UTC-06:00)

Cosmos 1603 - Visible Passes

Search period start: 25 February 2017 00:00
Search period end: 07 March 2017 00:00
Orbit: 832 x 859 km, 71.0° (Epoch: 25 February)

Date Brightness Start Highest point End Pass type
(mag) Time Alt. Az. Time Alt. Az. Time Alt. Az.
26 Feb 6.5 21:49:36 10° NNW 21:49:36 10° NNW 21:49:36 10° NNW visible
27 Feb 6.3 21:35:42 10° NNW 21:36:18 13° NNW 21:36:18 13° NNW visible
28 Feb 5.9 19:40:57 10° NNE 19:41:05 10° NE 19:41:05 10° NE visible
28 Feb 6.0 21:21:47 10° NNW 21:23:00 17° NNW 21:23:00 17° NNW visible
01 Mar 5.8 19:27:21 10° NE 19:27:50 10° NE 19:27:50 10° NE visible
01 Mar 5.7 21:07:53 10° NNW 21:09:45 21° NNW 21:09:45 21° NNW visible
02 Mar 5.7 19:14:01 10° NE 19:14:23 10° NE 19:14:39 10° NE visible
02 Mar 5.3 20:53:59 10° NNW 20:56:34 27° N 20:56:34 27° N visible
03 Mar 4.8 20:40:05 10° NNW 20:43:26 35° N 20:43:26 35° N visible
04 Mar 4.3 20:26:10 10° NNW 20:30:22 45° NNE 20:30:22 45° NNE visible
04 Mar 6.5 22:11:41 10° WNW 22:12:19 12° WNW 22:12:19 12° WNW visible
05 Mar 3.9 20:12:16 10° NNW 20:17:24 55° NE 20:17:24 55° NE visible
05 Mar 6.3 21:57:41 10° WNW 21:59:20 15° WNW 21:59:20 15° WNW visible
06 Mar 3.7 19:58:22 10° NNW 20:03:59 56° ENE 20:04:32 54° E visible
06 Mar 6.0 21:43:42 10° NW 21:46:28 18° W 21:46:28 18° W visible
